sat.trackr.live / text

‹ back to catalog

STARLINK-37126

NORAD 68520 · 2026-068N

PAYLOAD ACTIVE UNKNOWN

§ Identity

Operator
Country
US
Launch date
2026-03-30
Launch site
AFETR
Launch vehicle
Mass (kg)
RCS (m²)

Purposes: comms

External: N2YO · Heavens-Above · Gunter

§ Orbital elements

Epoch: 2026-09-20T03:13:23.905344Z

Period
93.85 min
Inclination
53.1582°
Eccentricity
0.0001166
Mean motion
15.34417047 rev/d
Perigee alt
461.9 km
Apogee alt
463.5 km
Semi-major
6,840.8 km
B*
3.8146e-4
RAAN
301.2407°
Arg perigee
90.1438°
Mean anomaly
269.9698°
Rev number
2,678

§ Raw data

STARLINK-371261 68520U 26068N   26263.13430446  .00012541  00000+0  38146-3 0  99942 68520  53.1582 301.2407 0001166  90.1438 269.9698 15.34417047 26781

JSON: /api/v1/satellites/68520 · /tle

For live sub-satellite position, see the globe view (requires WebGL).

§ Visibility from observer

Set your observer location to see the next 7 days of passes ≥ 10°. The values pass through the URL so the page stays shareable.

No JS? Fill the form by hand. The geolocation button needs JavaScript.